Date String (YYYY-MM-DD hh:mm:ss) UTC,Instrument flags,Ambient pressure (hPa),Sample flow (lpm),Bypass flow (lpm),Sample temperature (°C),Ambient temperature (°C),ASC tube jacket temperature (°C),LED temperature (°C),Box temperature (°C),Sample RH (%),Span deviation,Mass concentration (μg/m³),Mass concentration (μg/m³),Mass concentration (μg/m³)
DateTimeUTC,F1_M11,P_M11,Q1_M11,Q2_M11,T1_M11,T2_M11,T3_M11,T4_M11,T5_M11,U1_M11,ZSPAN_M11,X0_M11,X2_M11,X1_M11
2022-06-21 11:00:00,,0833.2,5.01,0.00,28.7,27.8,00.0,37.4,30.5,14.8,0000.0,0009.60,0003.79,0001.53
2022-06-21 11:01:00,,0833.2,5.00,0.00,28.7,27.8,00.0,37.4,30.6,14.8,0000.0,0009.90,0003.80,0001.53
2022-06-21 11:02:00,,0833.3,5.00,0.00,28.7,27.8,00.0,37.4,30.6,14.8,0000.0,0010.34,0003.85,0001.55
2022-06-21 11:03:00,,0833.3,5.00,0.00,28.7,27.8,00.0,37.5,30.6,14.7,0000.0,0010.37,0003.88,0001.54
2022-06-21 11:04:00,,0833.3,5.00,0.00,28.7,27.8,00.0,37.5,30.6,14.7,0000.0,0010.68,0003.90,0001.57
2022-06-21 11:05:00,,0833.3,4.99,0.00,28.7,27.9,00.0,37.5,30.6,14.7,0000.0,0010.85,0003.87,0001.57
2022-06-21 11:06:00,,0833.3,5.00,0.00,28.7,27.9,00.0,37.5,30.6,14.7,0000.0,0011.05,0003.82,0001.57
2022-06-21 11:07:00,,0833.3,5.00,0.00,28.7,27.9,00.0,37.5,30.6,14.7,0000.0,0011.40,0003.91,0001.58
2022-06-21 11:08:00,,0833.3,4.99,0.00,28.7,27.8,00.0,37.5,30.6,14.7,0000.0,0011.49,0003.92,0001.59
2022-06-21 11:09:00,,0833.3,5.00,0.00,28.7,27.8,00.0,37.5,30.6,14.8,0000.0,0011.44,0003.92,0001.61
2022-06-21 11:10:00,,0833.3,5.00,0.00,28.7,27.8,00.0,37.5,30.6,14.8,0000.0,0011.49,0003.91,0001.60
2022-06-21 11:11:00,,0833.3,4.99,0.00,28.7,27.8,00.0,37.6,30.6,14.8,0000.0,0011.34,0003.84,0001.58
2022-06-21 11:12:00,,0833.3,5.00,0.00,28.7,27.8,00.0,37.6,30.6,14.8,0000.0,0010.93,0003.79,0001.57
2022-06-21 11:13:00,,0833.3,5.00,0.00,28.7,27.8,00.0,37.6,30.6,14.8,0000.0,0010.58,0003.75,0001.58
2022-06-21 11:14:00,,0833.3,5.00,0.00,28.7,27.8,00.0,37.6,30.6,14.8,0000.0,0010.53,0003.72,0001.56
2022-06-21 11:15:00,,0833.3,5.00,0.00,28.7,27.8,00.0,37.6,30.6,14.7,0000.0,0009.88,0003.66,0001.53
2022-06-21 11:16:00,,0833.3,5.01,0.00,28.8,27.8,00.0,37.6,30.6,14.7,0000.0,0009.67,0003.69,0001.52
2022-06-21 11:17:00,,0833.3,4.99,0.00,28.8,27.8,00.0,37.6,30.6,14.7,0000.0,0009.62,0003.72,0001.52
2022-06-21 11:18:00,,0833.3,4.99,0.00,28.8,27.8,00.0,37.6,30.6,14.7,0000.0,0009.27,0003.64,0001.50
2022-06-21 11:19:00,,0833.3,5.01,0.00,28.8,27.8,00.0,37.6,30.6,14.7,0000.0,0009.39,0003.59,0001.49
2022-06-21 11:20:00,,0833.3,4.99,0.00,28.8,27.8,00.0,37.6,30.6,14.6,0000.0,0009.67,0003.58,0001.48
2022-06-21 11:21:00,,0833.4,5.00,0.00,28.8,27.8,00.0,37.6,30.6,14.6,0000.0,0010.00,0003.57,0001.49
2022-06-21 11:22:00,,0833.4,5.01,0.00,28.8,27.9,00.0,37.6,30.7,14.6,0000.0,0010.24,0003.61,0001.50
2022-06-21 11:23:00,,0833.4,5.00,0.00,28.8,27.9,00.0,37.6,30.7,14.6,0000.0,0010.18,0003.60,0001.49
2022-06-21 11:24:00,,0833.5,4.99,0.00,28.8,27.9,00.0,37.6,30.7,14.6,0000.0,0010.06,0003.61,0001.48
2022-06-21 11:25:00,,0833.4,5.00,0.00,28.8,27.9,00.0,37.6,30.7,14.6,0000.0,0009.83,0003.57,0001.47
2022-06-21 11:26:00,,0833.5,5.00,0.00,28.8,27.9,00.0,37.7,30.7,14.6,0000.0,0009.91,0003.56,0001.48
2022-06-21 11:27:00,,0833.5,5.00,0.00,28.8,27.9,00.0,37.7,30.7,14.6,0000.0,0010.04,0003.49,0001.47
2022-06-21 11:28:00,,0833.4,5.00,0.00,28.9,27.9,00.0,37.7,30.7,14.6,0000.0,0010.65,0003.48,0001.49
2022-06-21 11:29:00,,0833.5,5.00,0.00,28.9,27.9,00.0,37.7,30.7,14.6,0000.0,0010.78,0003.53,0001.50
2022-06-21 11:30:00,,0833.4,5.02,0.00,28.9,27.9,00.0,37.7,30.7,14.6,0000.0,0010.41,0003.51,0001.50
2022-06-21 11:31:00,,0833.5,4.99,0.00,28.9,27.9,00.0,37.7,30.7,14.6,0000.0,0010.12,0003.48,0001.49
2022-06-21 11:32:00,,0833.5,5.00,0.00,28.9,27.9,00.0,37.7,30.7,14.6,0000.0,0009.67,0003.48,0001.50
2022-06-21 11:33:00,,0833.6,5.00,0.00,28.9,27.9,00.0,37.7,30.8,14.6,0000.0,0009.39,0003.42,0001.49
2022-06-21 11:34:00,,0833.5,5.00,0.00,28.9,28.0,00.0,37.7,30.8,14.5,0000.0,0009.44,0003.44,0001.49
2022-06-21 11:35:00,,0833.5,4.99,0.00,28.9,28.0,00.0,37.7,30.8,14.4,0000.0,0009.54,0003.46,0001.48
2022-06-21 11:36:00,,0833.6,5.01,0.00,28.9,28.0,00.0,37.7,30.8,14.3,0000.0,0010.08,0003.54,0001.50
2022-06-21 11:37:00,,0833.6,5.00,0.00,28.9,28.0,00.0,37.7,30.8,14.3,0000.0,0010.51,0003.55,0001.50
2022-06-21 11:38:00,,0833.6,5.00,0.00,28.9,28.0,00.0,37.7,30.8,14.3,0000.0,0010.43,0003.57,0001.51
2022-06-21 11:39:00,,0833.6,5.01,0.00,29.0,28.0,00.0,37.7,30.8,14.3,0000.0,0009.69,0003.56,0001.50
2022-06-21 11:40:00,,0833.6,4.99,0.00,29.0,28.0,00.0,37.8,30.8,14.2,0000.0,0010.14,0003.56,0001.51
2022-06-21 11:41:00,,0833.6,5.01,0.00,29.0,28.0,00.0,37.8,30.8,14.2,0000.0,0010.23,0003.59,0001.50
2022-06-21 11:42:00,,0833.6,4.99,0.00,29.0,28.0,00.0,37.8,30.8,14.2,0000.0,0010.16,0003.63,0001.52
2022-06-21 11:43:00,,0833.6,5.00,0.00,29.0,28.0,00.0,37.8,30.8,14.3,0000.0,0010.29,0003.66,0001.51
2022-06-21 11:44:00,,0833.6,5.01,0.00,29.0,28.0,00.0,37.8,30.9,14.3,0000.0,0010.62,0003.76,0001.54
2022-06-21 11:45:00,,0833.6,4.99,0.00,29.0,28.0,00.0,37.8,30.9,14.3,0000.0,0010.81,0003.82,0001.55
2022-06-21 11:46:00,,0833.6,5.00,0.00,29.0,28.0,00.0,37.8,30.9,14.3,0000.0,0010.76,0003.81,0001.56
2022-06-21 11:47:00,,0833.7,5.01,0.00,29.0,28.0,00.0,37.8,30.9,14.3,0000.0,0010.32,0003.75,0001.56
2022-06-21 11:48:00,,0833.7,4.99,0.00,29.0,28.0,00.0,37.8,30.9,14.3,0000.0,0009.92,0003.76,0001.55
2022-06-21 11:49:00,,0833.7,5.00,0.00,29.0,28.0,00.0,37.8,30.9,14.2,0000.0,0009.75,0003.80,0001.56
2022-06-21 11:50:00,,0833.7,5.00,0.00,29.0,28.0,00.0,37.8,30.9,14.2,0000.0,0009.65,0003.80,0001.56
2022-06-21 11:51:00,,0833.8,5.00,0.00,29.0,28.1,00.0,37.8,30.9,14.1,0000.0,0009.22,0003.83,0001.56
2022-06-21 11:52:00,,0833.8,5.01,0.00,29.0,28.1,00.0,37.8,30.9,14.1,0000.0,0009.29,0003.90,0001.58
2022-06-21 11:53:00,,0833.9,4.99,0.00,29.0,28.1,00.0,37.8,30.9,14.1,0000.0,0009.66,0003.90,0001.57
2022-06-21 11:54:00,,0833.9,5.01,0.00,29.0,28.1,00.0,37.9,30.9,14.1,0000.0,0009.79,0003.91,0001.56
2022-06-21 11:55:00,,0833.8,5.01,0.00,29.0,28.1,00.0,37.9,30.9,14.1,0000.0,0009.58,0003.84,0001.56
2022-06-21 11:56:00,,0833.9,5.00,0.00,29.1,28.1,00.0,37.9,30.9,14.1,0000.0,0009.47,0003.81,0001.55
2022-06-21 11:57:00,,0833.9,5.00,0.00,29.1,28.1,00.0,37.9,30.9,14.2,0000.0,0009.53,0003.82,0001.54
2022-06-21 11:58:00,,0833.9,4.99,0.00,29.1,28.1,00.0,37.9,30.9,14.2,0000.0,0009.90,0003.88,0001.54
2022-06-21 11:59:00,,0833.8,5.00,0.00,29.1,28.1,00.0,37.9,30.9,14.2,0000.0,0010.46,0003.88,0001.56
